Year,Month,Day,Hour,Minute,Value (Times are PST for temperature in C)
2014,08,12,00,00,13.20
2014,08,12,00,01,13.20
2014,08,12,00,02,13.20
2014,08,12,00,03,13.30
2014,08,12,00,04,13.30
2014,08,12,00,05,13.30
2014,08,12,00,06,13.40
2014,08,12,00,07,13.40
2014,08,12,00,08,13.40
2014,08,12,00,09,13.50
2014,08,12,00,10,13.50
2014,08,12,00,11,13.50
2014,08,12,00,12,13.60
2014,08,12,00,13,13.60
2014,08,12,00,14,13.60
2014,08,12,00,15,13.70
2014,08,12,00,16,13.70
2014,08,12,00,17,13.70
2014,08,12,00,18,13.70
2014,08,12,00,19,13.70
2014,08,12,00,20,13.70
2014,08,12,00,21,13.80
2014,08,12,00,22,13.80
2014,08,12,00,23,13.80
2014,08,12,00,24,13.90
2014,08,12,00,25,13.90
2014,08,12,00,26,13.90
2014,08,12,00,27,13.90
2014,08,12,00,28,13.90
2014,08,12,00,29,14.00
2014,08,12,00,30,14.00
2014,08,12,00,31,14.00
2014,08,12,00,32,14.00
2014,08,12,00,33,14.00
2014,08,12,00,34,14.00
2014,08,12,00,35,14.00
2014,08,12,00,36,14.10
2014,08,12,00,37,14.10
2014,08,12,00,38,14.10
2014,08,12,00,39,14.10
2014,08,12,00,40,14.10
2014,08,12,00,41,14.10
2014,08,12,00,42,14.10
2014,08,12,00,43,14.20
2014,08,12,00,44,14.20
2014,08,12,00,45,14.20
2014,08,12,00,46,14.20
2014,08,12,00,47,14.20
2014,08,12,00,48,14.30
2014,08,12,00,49,14.30
2014,08,12,00,50,14.30
2014,08,12,00,51,14.40
2014,08,12,00,52,14.40
2014,08,12,00,53,14.50
2014,08,12,00,54,14.60
2014,08,12,00,55,14.70
2014,08,12,00,56,14.80
2014,08,12,00,57,14.90
2014,08,12,00,58,15.00
2014,08,12,00,59,15.10
2014,08,12,01,00,15.10
2014,08,12,01,01,15.20
2014,08,12,01,02,15.30
2014,08,12,01,03,15.30
2014,08,12,01,04,15.30
2014,08,12,01,05,15.40
2014,08,12,01,06,15.40
2014,08,12,01,07,15.40
2014,08,12,01,08,15.50
2014,08,12,01,09,15.50
2014,08,12,01,10,15.50
2014,08,12,01,11,15.60
2014,08,12,01,12,15.70
2014,08,12,01,13,15.80
2014,08,12,01,14,15.90
2014,08,12,01,15,16.10
2014,08,12,01,16,16.10
2014,08,12,01,17,16.30
2014,08,12,01,18,16.40
2014,08,12,01,19,16.50
2014,08,12,01,20,16.60
2014,08,12,01,21,16.70
2014,08,12,01,22,16.90
2014,08,12,01,23,17.00
2014,08,12,01,24,17.00
2014,08,12,01,25,17.00
2014,08,12,01,26,17.10
2014,08,12,01,27,17.10
2014,08,12,01,28,17.10
2014,08,12,01,29,17.10
2014,08,12,01,30,17.10
2014,08,12,01,31,17.10
2014,08,12,01,32,17.10
2014,08,12,01,33,17.10
2014,08,12,01,34,17.10
2014,08,12,01,35,17.10
2014,08,12,01,36,17.20
2014,08,12,01,37,17.30
2014,08,12,01,38,17.30
2014,08,12,01,39,17.30
2014,08,12,01,40,17.30
2014,08,12,01,41,17.40
2014,08,12,01,42,17.40
2014,08,12,01,43,17.40
2014,08,12,01,44,17.40
2014,08,12,01,45,17.40
2014,08,12,01,46,17.30
2014,08,12,01,47,17.20
2014,08,12,01,48,17.00
2014,08,12,01,49,16.70
2014,08,12,01,50,16.50
2014,08,12,01,51,16.30
2014,08,12,01,52,16.30
2014,08,12,01,53,16.20
2014,08,12,01,54,16.10
2014,08,12,01,55,16.00
2014,08,12,01,56,15.80
2014,08,12,01,57,15.60
2014,08,12,01,58,15.50
2014,08,12,01,59,15.30
2014,08,12,02,00,15.30
2014,08,12,02,01,15.20
2014,08,12,02,02,15.10
2014,08,12,02,03,15.10
2014,08,12,02,04,15.00
2014,08,12,02,05,15.00
2014,08,12,02,06,15.00
2014,08,12,02,07,14.90
2014,08,12,02,08,14.90
2014,08,12,02,09,14.90
2014,08,12,02,10,14.90
2014,08,12,02,11,14.80
2014,08,12,02,12,14.80
2014,08,12,02,13,14.80
2014,08,12,02,14,14.80
2014,08,12,02,15,14.80
2014,08,12,02,16,14.80
2014,08,12,02,17,14.80
2014,08,12,02,18,14.70
2014,08,12,02,19,14.70
2014,08,12,02,20,14.70
2014,08,12,02,21,14.60
2014,08,12,02,22,14.60
2014,08,12,02,23,14.60
2014,08,12,02,24,14.60
2014,08,12,02,25,14.50
2014,08,12,02,26,14.50
2014,08,12,02,27,14.50
2014,08,12,02,28,14.40
2014,08,12,02,29,14.40
2014,08,12,02,30,14.40
2014,08,12,02,31,14.40
2014,08,12,02,32,14.30
2014,08,12,02,33,14.30
2014,08,12,02,34,14.30
2014,08,12,02,35,14.30
2014,08,12,02,36,14.30
2014,08,12,02,37,14.30
2014,08,12,02,38,14.30
2014,08,12,02,39,14.30
2014,08,12,02,40,14.30
2014,08,12,02,41,14.30
2014,08,12,02,42,14.30
2014,08,12,02,43,14.30
2014,08,12,02,44,14.30
2014,08,12,02,45,14.30
2014,08,12,02,46,14.30
2014,08,12,02,47,14.30
2014,08,12,02,48,14.30
2014,08,12,02,49,14.30
2014,08,12,02,50,14.30
2014,08,12,02,51,14.30
2014,08,12,02,52,14.30
2014,08,12,02,53,14.30
2014,08,12,02,54,14.30
2014,08,12,02,55,14.30
2014,08,12,02,56,14.30
2014,08,12,02,57,14.40
2014,08,12,02,58,14.40
2014,08,12,02,59,14.40
2014,08,12,03,00,14.40
2014,08,12,03,01,14.40
2014,08,12,03,02,14.40
2014,08,12,03,03,14.40
2014,08,12,03,04,14.40
2014,08,12,03,05,14.40
2014,08,12,03,06,14.40
2014,08,12,03,07,14.40
2014,08,12,03,08,14.40
2014,08,12,03,09,14.40
2014,08,12,03,10,14.40
2014,08,12,03,11,14.40
2014,08,12,03,12,14.40
2014,08,12,03,13,14.40
2014,08,12,03,14,14.40
2014,08,12,03,15,14.40
2014,08,12,03,16,14.40
2014,08,12,03,17,14.40
2014,08,12,03,18,14.30
2014,08,12,03,19,14.30
2014,08,12,03,20,14.30
2014,08,12,03,21,14.20
2014,08,12,03,22,14.20
2014,08,12,03,23,14.20
2014,08,12,03,24,14.20
2014,08,12,03,25,14.20
2014,08,12,03,26,14.20
2014,08,12,03,27,14.10
2014,08,12,03,28,14.10
2014,08,12,03,29,14.10
2014,08,12,03,30,14.10
2014,08,12,03,31,14.10
2014,08,12,03,32,14.00
2014,08,12,03,33,14.00
2014,08,12,03,34,14.00
2014,08,12,03,35,14.00
2014,08,12,03,36,14.00
2014,08,12,03,37,14.00
2014,08,12,03,38,14.10
2014,08,12,03,39,14.10
2014,08,12,03,40,14.20
2014,08,12,03,41,14.20
2014,08,12,03,42,14.20
2014,08,12,03,43,14.20
2014,08,12,03,44,14.20
2014,08,12,03,45,14.30
2014,08,12,03,46,14.40
2014,08,12,03,47,14.40
2014,08,12,03,48,14.40
2014,08,12,03,49,14.50
2014,08,12,03,50,14.50
2014,08,12,03,51,14.60
2014,08,12,03,52,14.60
2014,08,12,03,53,14.70
2014,08,12,03,54,14.70
2014,08,12,03,55,14.80
2014,08,12,03,56,14.80
2014,08,12,03,57,14.90
2014,08,12,03,58,14.90
2014,08,12,03,59,15.00
2014,08,12,04,00,15.00
2014,08,12,04,01,15.10
2014,08,12,04,02,15.10
2014,08,12,04,03,15.20
2014,08,12,04,04,15.20
2014,08,12,04,05,15.30
2014,08,12,04,06,15.30
2014,08,12,04,07,15.40
2014,08,12,04,08,15.50
2014,08,12,04,09,15.50
2014,08,12,04,10,15.60
2014,08,12,04,11,15.60
2014,08,12,04,12,15.70
2014,08,12,04,13,15.80
2014,08,12,04,14,15.80
2014,08,12,04,15,15.90
2014,08,12,04,16,15.90
2014,08,12,04,17,16.00
2014,08,12,04,18,16.10
2014,08,12,04,19,16.10
2014,08,12,04,20,16.20
2014,08,12,04,21,16.20
2014,08,12,04,22,16.30
2014,08,12,04,23,16.40
2014,08,12,04,24,16.40
2014,08,12,04,25,16.50
2014,08,12,04,26,16.60
2014,08,12,04,27,16.60
2014,08,12,04,28,16.70
2014,08,12,04,29,16.70
2014,08,12,04,30,16.70
2014,08,12,04,31,16.70
2014,08,12,04,32,16.80
2014,08,12,04,33,16.80
2014,08,12,04,34,16.80
2014,08,12,04,35,16.80
2014,08,12,04,36,16.90
2014,08,12,04,37,16.90
2014,08,12,04,38,16.90
2014,08,12,04,39,17.00
2014,08,12,04,40,17.00
2014,08,12,04,41,17.00
2014,08,12,04,42,17.10
2014,08,12,04,43,17.10
2014,08,12,04,44,17.00
2014,08,12,04,45,17.00
2014,08,12,04,46,17.00
2014,08,12,04,47,17.00
2014,08,12,04,48,17.00
2014,08,12,04,49,17.00
2014,08,12,04,50,17.00
2014,08,12,04,51,17.00
2014,08,12,04,52,17.00
2014,08,12,04,53,16.90
2014,08,12,04,54,16.90
2014,08,12,04,55,16.90
2014,08,12,04,56,16.90
2014,08,12,04,57,16.80
2014,08,12,04,58,16.80
2014,08,12,04,59,16.70
2014,08,12,05,00,16.70
2014,08,12,05,01,16.60
2014,08,12,05,02,16.50
2014,08,12,05,03,16.40
2014,08,12,05,04,16.40
2014,08,12,05,05,16.30
2014,08,12,05,06,16.20
2014,08,12,05,07,16.20
2014,08,12,05,08,16.10
2014,08,12,05,09,16.10
2014,08,12,05,10,16.00
2014,08,12,05,11,15.90
2014,08,12,05,12,15.90
2014,08,12,05,13,15.80
2014,08,12,05,14,15.80
2014,08,12,05,15,15.70
2014,08,12,05,16,15.70
2014,08,12,05,17,15.60
2014,08,12,05,18,15.50
2014,08,12,05,19,15.30
2014,08,12,05,20,15.20
2014,08,12,05,21,15.10
2014,08,12,05,22,15.00
2014,08,12,05,23,14.90
2014,08,12,05,24,14.90
2014,08,12,05,25,14.80
2014,08,12,05,26,14.80
2014,08,12,05,27,14.80
2014,08,12,05,28,14.80
2014,08,12,05,29,14.80
2014,08,12,05,30,14.80
2014,08,12,05,31,14.70
2014,08,12,05,32,14.70
2014,08,12,05,33,14.70
2014,08,12,05,34,14.60
2014,08,12,05,35,14.60
2014,08,12,05,36,14.60
2014,08,12,05,37,14.50
2014,08,12,05,38,14.50
2014,08,12,05,39,14.50
2014,08,12,05,40,14.50
2014,08,12,05,41,14.60
2014,08,12,05,42,14.60
2014,08,12,05,43,14.60
2014,08,12,05,44,14.60
2014,08,12,05,45,14.60
2014,08,12,05,46,14.60
2014,08,12,05,47,14.60
2014,08,12,05,48,14.60
2014,08,12,05,49,14.70
2014,08,12,05,50,14.60
2014,08,12,05,51,14.60
2014,08,12,05,52,14.50
2014,08,12,05,53,14.40
2014,08,12,05,54,14.30
2014,08,12,05,55,14.20
2014,08,12,05,56,14.20
2014,08,12,05,57,14.10
2014,08,12,05,58,14.10
2014,08,12,05,59,14.00
2014,08,12,06,00,14.00
2014,08,12,06,01,13.90
2014,08,12,06,02,13.80
2014,08,12,06,03,13.80
2014,08,12,06,04,13.70
2014,08,12,06,05,13.70
2014,08,12,06,06,13.70
2014,08,12,06,07,13.70
2014,08,12,06,08,13.70
2014,08,12,06,09,13.70
2014,08,12,06,10,13.70
2014,08,12,06,11,13.70
2014,08,12,06,12,13.80
2014,08,12,06,13,13.80
2014,08,12,06,14,13.80
2014,08,12,06,15,13.80
2014,08,12,06,16,13.80
2014,08,12,06,17,13.80
2014,08,12,06,18,13.90
2014,08,12,06,19,13.90
2014,08,12,06,20,13.90
2014,08,12,06,21,14.00
2014,08,12,06,22,14.00
2014,08,12,06,23,14.00
2014,08,12,06,24,13.90
2014,08,12,06,25,13.80
2014,08,12,06,26,13.60
2014,08,12,06,27,13.50
2014,08,12,06,28,13.30
2014,08,12,06,29,13.20
2014,08,12,06,30,13.00
2014,08,12,06,31,12.90
2014,08,12,06,32,12.80
2014,08,12,06,33,12.70
2014,08,12,06,34,12.70
2014,08,12,06,35,12.60
2014,08,12,06,36,12.50
2014,08,12,06,37,12.50
2014,08,12,06,38,12.40
2014,08,12,06,39,12.40
2014,08,12,06,40,12.40
2014,08,12,06,41,12.40
2014,08,12,06,42,12.40
2014,08,12,06,43,12.40
2014,08,12,06,44,12.40
2014,08,12,06,45,12.40
2014,08,12,06,46,12.50
2014,08,12,06,47,12.50
2014,08,12,06,48,12.60
2014,08,12,06,49,12.70
2014,08,12,06,50,12.70
2014,08,12,06,51,12.80
2014,08,12,06,52,12.80
2014,08,12,06,53,12.90
2014,08,12,06,54,12.90
2014,08,12,06,55,13.00
2014,08,12,06,56,13.00
2014,08,12,06,57,13.10
2014,08,12,06,58,13.10
2014,08,12,06,59,13.20
2014,08,12,07,00,13.20
2014,08,12,07,01,13.30
2014,08,12,07,02,13.30
2014,08,12,07,03,13.30
2014,08,12,07,04,13.30
2014,08,12,07,05,13.30
2014,08,12,07,06,13.30
2014,08,12,07,07,13.30
2014,08,12,07,08,13.30
2014,08,12,07,09,13.30
2014,08,12,07,10,13.40
2014,08,12,07,11,13.40
2014,08,12,07,12,13.40
2014,08,12,07,13,13.40
2014,08,12,07,14,13.40
2014,08,12,07,15,13.40
2014,08,12,07,16,13.40
2014,08,12,07,17,13.30
2014,08,12,07,18,13.30
2014,08,12,07,19,13.30
2014,08,12,07,20,13.30
2014,08,12,07,21,13.30
2014,08,12,07,22,13.30
2014,08,12,07,23,13.30
2014,08,12,07,24,13.30
2014,08,12,07,25,13.30
2014,08,12,07,26,13.30
2014,08,12,07,27,13.30
2014,08,12,07,28,13.30
2014,08,12,07,29,13.30
2014,08,12,07,30,13.30
2014,08,12,07,31,13.30
2014,08,12,07,32,13.30
2014,08,12,07,33,13.30
2014,08,12,07,34,13.20
2014,08,12,07,35,13.20
2014,08,12,07,36,13.20
2014,08,12,07,37,13.20
2014,08,12,07,38,13.20
2014,08,12,07,39,13.20
2014,08,12,07,40,13.20
2014,08,12,07,41,13.20
2014,08,12,07,42,13.10
2014,08,12,07,43,13.10
2014,08,12,07,44,13.10
2014,08,12,07,45,13.10
2014,08,12,07,46,13.10
2014,08,12,07,47,13.10
2014,08,12,07,48,13.20
2014,08,12,07,49,13.20
2014,08,12,07,50,13.20
2014,08,12,07,51,13.30
2014,08,12,07,52,13.30
2014,08,12,07,53,13.30
2014,08,12,07,54,13.30
2014,08,12,07,55,13.40
2014,08,12,07,56,13.40
2014,08,12,07,57,13.50
2014,08,12,07,58,13.50
2014,08,12,07,59,13.60
2014,08,12,08,00,13.70
2014,08,12,08,01,13.70
2014,08,12,08,02,13.80
2014,08,12,08,03,13.80
2014,08,12,08,04,13.90
2014,08,12,08,05,14.00
2014,08,12,08,06,14.00
2014,08,12,08,07,14.10
2014,08,12,08,08,14.20
2014,08,12,08,09,14.20
2014,08,12,08,10,14.30
2014,08,12,08,11,14.40
2014,08,12,08,12,14.40
2014,08,12,08,13,14.50
2014,08,12,08,14,14.60
2014,08,12,08,15,14.60
2014,08,12,08,16,14.70
2014,08,12,08,17,14.70
2014,08,12,08,18,14.80
2014,08,12,08,19,14.70
2014,08,12,08,20,14.60
2014,08,12,08,21,14.60
2014,08,12,08,22,14.50
2014,08,12,08,23,14.40
2014,08,12,08,24,14.30
2014,08,12,08,25,14.20
2014,08,12,08,26,14.10
2014,08,12,08,27,14.10
2014,08,12,08,28,14.00
2014,08,12,08,29,14.00
2014,08,12,08,30,13.90
2014,08,12,08,31,13.90
2014,08,12,08,32,13.90
2014,08,12,08,33,13.80
2014,08,12,08,34,13.80
2014,08,12,08,35,13.80
2014,08,12,08,36,13.80
2014,08,12,08,37,13.80
2014,08,12,08,38,13.80
2014,08,12,08,39,13.80
2014,08,12,08,40,13.80
2014,08,12,08,41,13.80
2014,08,12,08,42,13.80
2014,08,12,08,43,13.90
2014,08,12,08,44,13.90
2014,08,12,08,45,13.90
2014,08,12,08,46,13.90
2014,08,12,08,47,14.00
2014,08,12,08,48,14.00
2014,08,12,08,49,14.10
2014,08,12,08,50,14.10
2014,08,12,08,51,14.20
2014,08,12,08,52,14.20
2014,08,12,08,53,14.20
2014,08,12,08,54,14.30
2014,08,12,08,55,14.30
2014,08,12,08,56,14.40
2014,08,12,08,57,14.40
2014,08,12,08,58,14.40
2014,08,12,08,59,14.50
2014,08,12,09,00,14.50
2014,08,12,09,01,14.50
2014,08,12,09,02,14.50
2014,08,12,09,03,14.50
2014,08,12,09,04,14.60
2014,08,12,09,05,14.60
2014,08,12,09,06,14.60
2014,08,12,09,07,14.60
2014,08,12,09,08,14.60
2014,08,12,09,09,14.60
2014,08,12,09,10,14.70
2014,08,12,09,11,14.70
2014,08,12,09,12,14.70
2014,08,12,09,13,14.80
2014,08,12,09,14,14.80
2014,08,12,09,15,14.80
2014,08,12,09,16,14.80
2014,08,12,09,17,14.90
2014,08,12,09,18,14.90
2014,08,12,09,19,15.00
2014,08,12,09,20,15.00
2014,08,12,09,21,15.10
2014,08,12,09,22,15.20
2014,08,12,09,23,15.30
2014,08,12,09,24,15.30
2014,08,12,09,25,15.30
2014,08,12,09,26,15.20
2014,08,12,09,27,15.00
2014,08,12,09,28,14.80
2014,08,12,09,29,14.70
2014,08,12,09,30,14.50
2014,08,12,09,31,14.40
2014,08,12,09,32,14.30
2014,08,12,09,33,14.20
2014,08,12,09,34,14.20
2014,08,12,09,35,14.20
2014,08,12,09,36,14.20
2014,08,12,09,37,14.10
2014,08,12,09,38,14.10
2014,08,12,09,39,14.00
2014,08,12,09,40,14.00
2014,08,12,09,41,14.00
2014,08,12,09,42,14.00
2014,08,12,09,43,13.90
2014,08,12,09,44,14.00
2014,08,12,09,45,14.00
2014,08,12,09,46,14.00
2014,08,12,09,47,14.00
2014,08,12,09,48,14.10
2014,08,12,09,49,14.20
2014,08,12,09,50,14.20
2014,08,12,09,51,14.20
2014,08,12,09,52,14.30
2014,08,12,09,53,14.40
2014,08,12,09,54,14.50
2014,08,12,09,55,14.60
2014,08,12,09,56,14.60
2014,08,12,09,57,14.70
2014,08,12,09,58,14.80
2014,08,12,09,59,15.00
2014,08,12,10,00,15.10
2014,08,12,10,01,15.20
2014,08,12,10,02,15.40
2014,08,12,10,03,15.50
2014,08,12,10,04,15.60
2014,08,12,10,05,15.80
2014,08,12,10,06,15.90
2014,08,12,10,07,16.10
2014,08,12,10,08,16.20
2014,08,12,10,09,16.40
2014,08,12,10,10,16.50
2014,08,12,10,11,16.70
2014,08,12,10,12,16.80
2014,08,12,10,13,16.90
2014,08,12,10,14,17.00
2014,08,12,10,15,17.10
2014,08,12,10,16,17.30
2014,08,12,10,17,17.40
2014,08,12,10,18,17.50
2014,08,12,10,19,17.60
2014,08,12,10,20,17.70
2014,08,12,10,21,17.80
2014,08,12,10,22,17.90
2014,08,12,10,23,18.00
2014,08,12,10,24,18.20
2014,08,12,10,25,18.20
2014,08,12,10,26,18.30
2014,08,12,10,27,18.40
2014,08,12,10,28,18.50
2014,08,12,10,29,18.60
2014,08,12,10,30,18.60
2014,08,12,10,31,18.70
2014,08,12,10,32,18.80
2014,08,12,10,33,18.80
2014,08,12,10,34,18.90
2014,08,12,10,35,18.90
2014,08,12,10,36,19.00
2014,08,12,10,37,18.80
2014,08,12,10,38,18.40
2014,08,12,10,39,17.90
2014,08,12,10,40,17.50
2014,08,12,10,41,17.10
2014,08,12,10,42,16.80
2014,08,12,10,43,16.70
2014,08,12,10,44,16.60
2014,08,12,10,45,16.60
2014,08,12,10,46,16.60
2014,08,12,10,47,16.60
2014,08,12,10,48,16.60
2014,08,12,10,49,16.60
2014,08,12,10,50,16.60
2014,08,12,10,51,16.60
2014,08,12,10,52,16.70
2014,08,12,10,53,16.90
2014,08,12,10,54,17.00
2014,08,12,10,55,17.10
2014,08,12,10,56,17.10
2014,08,12,10,57,17.30
2014,08,12,10,58,17.30
2014,08,12,10,59,17.30
2014,08,12,11,00,17.30
2014,08,12,11,01,17.40
2014,08,12,11,02,17.50
2014,08,12,11,03,17.50
2014,08,12,11,04,17.60
2014,08,12,11,05,17.60
2014,08,12,11,06,17.70
2014,08,12,11,07,17.70
2014,08,12,11,08,17.80
2014,08,12,11,09,17.80
2014,08,12,11,10,17.90
2014,08,12,11,11,17.90
2014,08,12,11,12,17.90
2014,08,12,11,13,17.90
2014,08,12,11,14,18.00
2014,08,12,11,15,18.10
2014,08,12,11,16,18.10
2014,08,12,11,17,18.10
2014,08,12,11,18,18.20
2014,08,12,11,19,18.20
2014,08,12,11,20,18.20
2014,08,12,11,21,18.30
2014,08,12,11,22,18.30
2014,08,12,11,23,18.30
2014,08,12,11,24,18.40
2014,08,12,11,25,18.40
2014,08,12,11,26,18.40
2014,08,12,11,27,18.50
2014,08,12,11,28,18.60
2014,08,12,11,29,18.60
2014,08,12,11,30,18.60
2014,08,12,11,31,18.70
2014,08,12,11,32,18.70
2014,08,12,11,33,18.80
2014,08,12,11,34,18.90
2014,08,12,11,35,18.90
2014,08,12,11,36,18.90
2014,08,12,11,37,19.00
2014,08,12,11,38,19.10
2014,08,12,11,39,19.10
2014,08,12,11,40,19.20
2014,08,12,11,41,19.20
2014,08,12,11,42,19.30
2014,08,12,11,43,19.40
2014,08,12,11,44,19.40
2014,08,12,11,45,19.50
2014,08,12,11,46,19.60
2014,08,12,11,47,19.60
2014,08,12,11,48,19.70
2014,08,12,11,49,19.80
2014,08,12,11,50,19.80
2014,08,12,11,51,19.90
2014,08,12,11,52,19.90
2014,08,12,11,53,20.00
2014,08,12,11,54,20.10
2014,08,12,11,55,20.10
2014,08,12,11,56,20.20
2014,08,12,11,57,20.20
2014,08,12,11,58,20.30
2014,08,12,11,59,20.40
2014,08,12,12,00,20.50
2014,08,12,12,01,20.60
2014,08,12,12,02,20.60
2014,08,12,12,03,20.70
2014,08,12,12,04,20.80
2014,08,12,12,05,20.80
2014,08,12,12,06,20.90
2014,08,12,12,07,21.00
2014,08,12,12,08,21.00
2014,08,12,12,09,21.10
2014,08,12,12,10,21.10
2014,08,12,12,11,21.20
2014,08,12,12,12,21.20
2014,08,12,12,13,21.30
2014,08,12,12,14,21.30
2014,08,12,12,15,21.30
2014,08,12,12,16,21.30
2014,08,12,12,17,21.30
2014,08,12,12,18,21.30
2014,08,12,12,19,21.30
2014,08,12,12,20,21.30
2014,08,12,12,21,21.30
2014,08,12,12,22,21.30
2014,08,12,12,23,21.10
2014,08,12,12,24,20.90
2014,08,12,12,25,20.50
2014,08,12,12,26,20.00
2014,08,12,12,27,19.60
2014,08,12,12,28,19.40
2014,08,12,12,29,19.00
2014,08,12,12,30,18.80
2014,08,12,12,31,18.60
2014,08,12,12,32,18.00
2014,08,12,12,33,17.40
2014,08,12,12,34,17.10
2014,08,12,12,35,17.00
2014,08,12,12,36,17.00
2014,08,12,12,37,17.10
2014,08,12,12,38,17.20
2014,08,12,12,39,17.30
2014,08,12,12,40,17.40
2014,08,12,12,41,17.50
2014,08,12,12,42,17.50
2014,08,12,12,43,17.40
2014,08,12,12,44,17.00
2014,08,12,12,45,16.80
2014,08,12,12,46,16.70
2014,08,12,12,47,16.70
2014,08,12,12,48,16.80
2014,08,12,12,49,17.00
2014,08,12,12,50,17.20
2014,08,12,12,51,17.40
2014,08,12,12,52,17.50
2014,08,12,12,53,17.50
2014,08,12,12,54,17.50
2014,08,12,12,55,17.60
2014,08,12,12,56,17.80
2014,08,12,12,57,17.90
2014,08,12,12,58,18.00
2014,08,12,12,59,18.20
2014,08,12,13,00,18.50
2014,08,12,13,01,18.70
2014,08,12,13,02,19.00
2014,08,12,13,03,19.30
2014,08,12,13,04,19.50
2014,08,12,13,05,19.70
2014,08,12,13,06,19.80
2014,08,12,13,07,19.70
2014,08,12,13,08,19.60
2014,08,12,13,09,19.40
2014,08,12,13,10,19.40
2014,08,12,13,11,19.50
2014,08,12,13,12,19.60
2014,08,12,13,13,19.70
2014,08,12,13,14,19.80
2014,08,12,13,15,19.90
2014,08,12,13,16,19.90
2014,08,12,13,17,19.90
2014,08,12,13,18,20.00
2014,08,12,13,19,20.10
2014,08,12,13,20,20.20
2014,08,12,13,21,20.30
2014,08,12,13,22,20.40
2014,08,12,13,23,20.40
2014,08,12,13,24,20.50
2014,08,12,13,25,20.60
2014,08,12,13,26,20.60
2014,08,12,13,27,20.60
2014,08,12,13,28,20.60
2014,08,12,13,29,20.70
2014,08,12,13,30,20.70
2014,08,12,13,31,20.80
2014,08,12,13,32,21.00
2014,08,12,13,33,21.10
2014,08,12,13,34,21.20
2014,08,12,13,35,21.30
2014,08,12,13,36,21.40
2014,08,12,13,37,21.50
2014,08,12,13,38,21.60
2014,08,12,13,39,21.60
2014,08,12,13,40,21.70
2014,08,12,13,41,21.60
2014,08,12,13,42,21.60
2014,08,12,13,43,21.30
2014,08,12,13,44,20.60
2014,08,12,13,45,19.90
2014,08,12,13,46,19.30
2014,08,12,13,47,18.80
2014,08,12,13,48,18.60
2014,08,12,13,49,18.40
2014,08,12,13,50,18.40
2014,08,12,13,51,18.50
2014,08,12,13,52,18.60
2014,08,12,13,53,18.70
2014,08,12,13,54,18.80
2014,08,12,13,55,19.00
2014,08,12,13,56,19.10
2014,08,12,13,57,19.20
2014,08,12,13,58,19.20
2014,08,12,13,59,19.20
2014,08,12,14,00,19.10
2014,08,12,14,01,18.90
2014,08,12,14,02,18.70
2014,08,12,14,03,18.40
2014,08,12,14,04,18.30
2014,08,12,14,05,18.20
2014,08,12,14,06,18.20
2014,08,12,14,07,18.20
2014,08,12,14,08,18.30
2014,08,12,14,09,18.40
2014,08,12,14,10,18.50
2014,08,12,14,11,18.60
2014,08,12,14,12,18.70
2014,08,12,14,13,18.90
2014,08,12,14,14,19.10
2014,08,12,14,15,19.20
2014,08,12,14,16,19.40
2014,08,12,14,17,19.50
2014,08,12,14,18,19.50
2014,08,12,14,19,19.50
2014,08,12,14,20,19.40
2014,08,12,14,21,19.40
2014,08,12,14,22,19.40
2014,08,12,14,23,19.40
2014,08,12,14,24,19.40
2014,08,12,14,25,19.50
2014,08,12,14,26,19.50
2014,08,12,14,27,19.50
2014,08,12,14,28,19.40
2014,08,12,14,29,19.40
2014,08,12,14,30,19.40
2014,08,12,14,31,19.40
2014,08,12,14,32,19.50
2014,08,12,14,33,19.60
2014,08,12,14,34,19.70
2014,08,12,14,35,19.90
2014,08,12,14,36,19.90
2014,08,12,14,37,20.10
2014,08,12,14,38,20.20
2014,08,12,14,39,20.20
2014,08,12,14,40,20.20
2014,08,12,14,41,20.20
2014,08,12,14,42,20.20
2014,08,12,14,43,20.20
2014,08,12,14,44,20.20
2014,08,12,14,45,20.10
2014,08,12,14,46,20.10
2014,08,12,14,47,20.20
2014,08,12,14,48,20.20
2014,08,12,14,49,20.20
2014,08,12,14,50,20.20
2014,08,12,14,51,20.10
2014,08,12,14,52,20.00
2014,08,12,14,53,19.90
2014,08,12,14,54,19.80
2014,08,12,14,55,19.80
2014,08,12,14,56,19.80
2014,08,12,14,57,19.80
2014,08,12,14,58,19.90
2014,08,12,14,59,19.90
2014,08,12,15,00,19.90
2014,08,12,15,01,20.10
2014,08,12,15,02,20.10
2014,08,12,15,03,20.20
2014,08,12,15,04,20.20
2014,08,12,15,05,20.30
2014,08,12,15,06,20.30
2014,08,12,15,07,20.40
2014,08,12,15,08,20.50
2014,08,12,15,09,20.50
2014,08,12,15,10,20.60
2014,08,12,15,11,20.60
2014,08,12,15,12,20.70
2014,08,12,15,13,20.70
2014,08,12,15,14,20.60
2014,08,12,15,15,20.40
2014,08,12,15,16,20.30
2014,08,12,15,17,20.30
2014,08,12,15,18,20.20
2014,08,12,15,19,20.20
2014,08,12,15,20,20.20
2014,08,12,15,21,20.20
2014,08,12,15,22,20.30
2014,08,12,15,23,20.30
2014,08,12,15,24,20.40
2014,08,12,15,25,20.40
2014,08,12,15,26,20.50
2014,08,12,15,27,20.50
2014,08,12,15,28,20.50
2014,08,12,15,29,20.60
2014,08,12,15,30,20.70
2014,08,12,15,31,20.70
2014,08,12,15,32,20.80
2014,08,12,15,33,20.80
2014,08,12,15,34,20.90
2014,08,12,15,35,20.90
2014,08,12,15,36,21.00
2014,08,12,15,37,21.00
2014,08,12,15,38,21.10
2014,08,12,15,39,21.20
2014,08,12,15,40,21.30
2014,08,12,15,41,21.30
2014,08,12,15,42,21.40
2014,08,12,15,43,21.50
2014,08,12,15,44,21.60
2014,08,12,15,45,21.70
2014,08,12,15,46,21.80
2014,08,12,15,47,21.90
2014,08,12,15,48,22.00
2014,08,12,15,49,22.00
2014,08,12,15,50,22.20
2014,08,12,15,51,22.30
2014,08,12,15,52,22.30
2014,08,12,15,53,22.40
2014,08,12,15,54,22.50
2014,08,12,15,55,22.60
2014,08,12,15,56,22.70
2014,08,12,15,57,22.80
2014,08,12,15,58,23.00
2014,08,12,15,59,23.10
2014,08,12,16,00,23.30
2014,08,12,16,01,23.40
2014,08,12,16,02,23.60
2014,08,12,16,03,23.70
2014,08,12,16,04,23.90
2014,08,12,16,05,24.00
2014,08,12,16,06,24.10
2014,08,12,16,07,24.20
2014,08,12,16,08,24.30
2014,08,12,16,09,24.50
2014,08,12,16,10,24.60
2014,08,12,16,11,24.70
2014,08,12,16,12,24.90
2014,08,12,16,13,25.00
2014,08,12,16,14,25.10
2014,08,12,16,15,25.30
2014,08,12,16,16,25.40
2014,08,12,16,17,25.50
2014,08,12,16,18,25.50
2014,08,12,16,19,25.50
2014,08,12,16,20,25.50
2014,08,12,16,21,25.40
2014,08,12,16,22,25.30
2014,08,12,16,23,25.10
2014,08,12,16,24,24.90
2014,08,12,16,25,24.70
2014,08,12,16,26,24.40
2014,08,12,16,27,24.20
2014,08,12,16,28,24.00
2014,08,12,16,29,23.80
2014,08,12,16,30,23.60
2014,08,12,16,31,23.40
2014,08,12,16,32,23.20
2014,08,12,16,33,23.00
2014,08,12,16,34,22.90
2014,08,12,16,35,22.80
2014,08,12,16,36,22.60
2014,08,12,16,37,22.50
2014,08,12,16,38,22.40
2014,08,12,16,39,22.40
2014,08,12,16,40,22.40
2014,08,12,16,41,22.40
2014,08,12,16,42,22.50
2014,08,12,16,43,22.50
2014,08,12,16,44,22.60
2014,08,12,16,45,22.70
2014,08,12,16,46,22.70
2014,08,12,16,47,22.90
2014,08,12,16,48,22.90
2014,08,12,16,49,22.90
2014,08,12,16,50,23.10
2014,08,12,16,51,23.10
2014,08,12,16,52,23.20
2014,08,12,16,53,23.30
2014,08,12,16,54,23.30
2014,08,12,16,55,23.40
2014,08,12,16,56,23.60
2014,08,12,16,57,23.70
2014,08,12,16,58,23.70
2014,08,12,16,59,23.70
2014,08,12,17,00,23.70
2014,08,12,17,01,23.70
2014,08,12,17,02,23.70
2014,08,12,17,03,23.70
2014,08,12,17,04,23.70
2014,08,12,17,05,23.80
2014,08,12,17,06,23.90
2014,08,12,17,07,24.00
2014,08,12,17,08,24.10
2014,08,12,17,09,24.20
2014,08,12,17,10,24.30
2014,08,12,17,11,24.40
2014,08,12,17,12,24.50
2014,08,12,17,13,24.60
2014,08,12,17,14,24.70
2014,08,12,17,15,24.80
2014,08,12,17,16,24.90
2014,08,12,17,17,24.90
2014,08,12,17,18,25.00
2014,08,12,17,19,25.00